Flag for Brazil Weather past 2 weeks in Cuiabá, Mato Grosso, Brazil

Now
79 °F

Partly sunny.


Feels Like: 82 °F
Forecast: N/A
Wind: 6 mph from Northwest

Location: Cuiaba Aeroporto

Current Time: Jan 27, 2015 at 8:46:25 PM

Latest Report: Jan 27, 2015 at 8:00 PM


Visibility: N/A

Pressure: 29.86 "Hg

Humidity: 79%

Dew point: 72 °F

Location of CuiabáLocation

Historic Weather in Cuiabá — Graph

°F

Cuiabá temperature yesterday

Maximum temperature yesterday: 88 °F (at 2:00 PM)
Minimum temperature yesterday: 73 °F (at 6:00 AM)
Average temperature yesterday: 80 °F

Past Weeks' High & Low Weather Summary

 TemperatureHumidityPressure
High95 °F (Jan 19, 3:00 PM)100% (Jan 13, 4:00 PM)30.01 "Hg (Jan 13, 4:00 PM)
Low39 °F (Jan 13, 4:00 PM)46% (Jan 25, 4:00 PM)29.77 "Hg (Jan 22, 6:00 PM)
Average79 °F78%29.90 "Hg
* Reported Jan 12 7:00 PM — Jan 27 7:00 PM, Cuiabá, Weather by CustomWeather, © 2014

Note: Actual official high and low records may vary slightly from our data, if they occured in-between our weather recording intervals... More about our weather records

Advertising

Cuiabá weather history for previous 24 hours

 ConditionsComfort  
Time TempWeatherWind HumidityBarometerVisibility
7:00 PM
Jan 27
79 °FPartly sunny.6 mph84%29.86 "HgN/A
6:00 PM81 °FPartly sunny.8 mph79%29.83 "HgN/A
5:00 PM79 °FPartly sunny.7 mph79%29.83 "HgN/A
4:00 PM77 °FPartly sunny.9 mph83%29.86 "HgN/A
3:00 PM75 °FBroken clouds.14 mph89%29.89 "HgN/A
2:00 PM77 °FLight rain. Broken clouds.13 mph89%N/AN/A
1:00 PM82 °FBroken clouds.7 mph74%29.92 "HgN/A
12:00 PM81 °FRain showers. Broken clouds.10 mph74%29.95 "Hg1 mi
11:00 AM82 °FBroken clouds.7 mph70%29.98 "HgN/A
10:00 AM79 °FPartly sunny.8 mph79%29.98 "HgN/A
9:00 AM79 °FPartly sunny.9 mph79%29.98 "HgN/A
8:00 AM77 °FPartly sunny.6 mph83%29.95 "HgN/A
7:00 AM75 °FPassing clouds.6 mph89%29.92 "HgN/A
6:00 AM75 °FPassing clouds.8 mph89%29.89 "HgN/A
5:00 AM75 °FPassing clouds.3 mph94%29.86 "HgN/A
4:00 AM75 °FPassing clouds.3 mph94%29.86 "HgN/A
3:00 AM77 °FPassing clouds.6 mph89%29.86 "HgN/A
2:00 AM75 °FPassing clouds.3 mph94%29.86 "HgN/A
1:00 AM77 °FPassing clouds.5 mph89%29.89 "HgN/A
12:00 AM77 °FPassing clouds.5 mph89%29.89 "HgN/A
11:00 PM
Jan 26
77 °FPassing clouds.3 mph89%29.89 "HgN/A
10:00 PM77 °FPassing clouds.5 mph89%29.89 "HgN/A
9:00 PM77 °FPassing clouds.6 mph89%29.86 "HgN/A
8:00 PM79 °FPartly sunny.6 mph79%29.83 "HgN/A
Weather by CustomWeather, © 2014

See weather overviewHow to use our weather pages